RH
72 74 77 82 84 85 82 79 82 78 71 80 84 78 78 76 63 50 43 44 43 34 25 24 22 21 23 22 21 21 20 17 14 12 9 6 7 9 9 9 9 8 8 7 5 4 3 3 3 2 2 2 2 2 2 2 2 2 2 2 2 2 3 3 3 3 3 3 3 3 3 3 3 3
73 75 78 80 84 82 76 82 88 78 71 83 90 84 82 80 68 55 48 46 44 37 28 25 24 22 22 23 22 22 21 18 15 14 13 9 7 8 7 7 8 8 9 8 7 5 4 4 3 3 3 2 2 2 2 2 2 2 2 2 2 2 3 3 3 3 3 3 3 3 3 3 3 3
68 72 78 77 78 78 78 83 87 80 75 83 91 89 87 87 73 55 51 47 39 33 28 27 27 24 22 22 23 23 23 20 17 16 16 12 9 8 6 6 7 7 8 8 7 6 5 5 4 4 4 3 3 3 2 2 2 2 2 2 3 3 2 3 3 3 3 3 3 3 3 3 3 3
66 69 73 71 72 78 83 83 82 80 76 77 86 89 90 88 68 54 58 51 33 29 30 29 29 27 23 22 23 25 24 21 18 17 17 16 14 12 9 8 7 7 7 7 6 6 5 5 5 5 5 4 4 4 3 3 2 2 3 2 2 3 2 3 3 3 3 3 3 4 3 4 4 3
70 69 73 76 78 82 86 85 84 83 75 74 84 89 88 82 68 63 63 44 27 29 33 33 32 28 26 23 23 25 25 23 20 19 19 18 18 17 14 12 9 7 8 7 6 6 5 5 5 5 5 4 4 4 3 3 2 2 2 2 3 3 3 3 3 3 3 3 3 4 4 4 4 4
75 71 78 85 85 84 86 87 88 84 76 78 87 89 86 82 77 71 55 33 27 31 33 36 35 30 28 25 23 25 26 25 24 23 22 20 20 19 18 17 11 8 8 7 6 6 4 4 4 4 4 4 4 4 3 3 3 2 3 2 2 3 3 3 3 3 3 3 4 4 4 4 4 4
79 79 85 88 85 84 87 88 86 82 79 82 87 87 84 82 79 69 47 30 29 29 30 37 37 33 31 26 24 25 26 27 27 26 25 23 22 22 22 20 14 10 9 7 6 5 5 4 4 4 4 3 3 3 3 3 3 3 3 3 3 3 3 3 3 4 3 3 4 4 4 4 4 5
74 78 83 87 88 86 88 90 87 82 84 87 89 88 85 79 76 69 49 31 28 30 33 37 37 34 31 26 26 26 26 28 27 26 26 26 25 25 25 24 18 13 9 7 6 6 5 4 4 4 4 3 4 3 3 3 3 3 3 3 3 3 3 3 3 4 4 4 4 4 5 5 5 5
69 70 76 85 91 91 91 92 91 88 87 88 90 91 86 79 77 72 51 30 27 31 32 34 35 32 28 27 27 26 26 27 26 25 26 26 26 26 27 27 21 15 11 8 7 6 5 5 5 5 4 4 4 3 3 3 3 3 3 3 4 3 3 4 4 4 5 5 5 5 5 6 5 6
66 67 73 82 90 93 92 90 89 90 90 87 86 87 86 81 79 74 51 30 29 32 31 33 35 31 28 29 30 28 27 28 28 28 28 29 27 24 24 24 21 17 14 12 10 7 5 6 6 6 5 4 4 4 4 4 3 3 4 3 4 4 4 4 4 5 5 5 6 6 6 7 7 7
63 67 73 80 88 92 92 89 86 86 88 89 87 87 90 87 82 74 52 33 31 33 34 37 38 36 36 38 40 38 33 30 29 27 27 31 33 29 24 21 21 21 17 13 9 6 5 6 5 5 5 4 4 4 3 4 4 4 4 4 5 5 5 5 5 6 6 6 7 7 7 8 8 8
59 64 70 78 84 87 88 89 88 85 84 87 88 88 92 93 88 80 62 43 36 37 42 47 46 46 45 43 44 43 37 32 30 28 27 30 34 33 28 24 25 25 22 18 15 11 8 6 5 6 6 6 5 4 4 5 4 5 6 7 7 7 7 7 7 8 8 8 9 9 9 10 10 9
55 59 68 77 82 85 88 88 88 87 86 87 89 89 92 95 92 86 76 61 50 47 49 52 52 53 50 43 42 42 38 35 33 32 33 34 33 29 25 25 28 28 23 19 17 14 10 8 8 8 7 7 6 5 5 5 6 11 16 20 23 25 25 25 25 25 24 21 19 17 15 14 13 13
52 56 65 73 79 84 88 88 87 89 89 89 92 94 96 96 93 89 85 78 70 64 61 60 61 59 52 45 43 41 39 39 39 38 39 39 35 26 17 16 22 25 20 14 11 11 10 9 10 11 11 12 15 17 17 15 18 25 35 44 50 49 45 42 41 41 37 30 23 18 15 14 13 12
48 52 61 71 79 82 85 88 89 89 90 91 93 97 100 99 97 95 93 90 86 80 75 72 68 61 53 46 42 40 40 41 41 41 40 40 37 28 16 11 17 21 17 11 9 9 9 10 12 15 16 17 21 27 28 27 31 39 48 54 54 49 44 42 41 37 31 25 22 21 20 20 21 22
42 46 56 68 79 84 86 89 89 88 89 90 93 98 98 94 89 85 86 88 87 86 84 80 70 59 50 43 39 41 43 43 43 43 41 39 33 23 16 14 14 12 10 9 10 10 10 10 9 10 13 17 22 28 32 37 44 48 46 43 42 44 46 47 46 42 40 42 46 50 51 51 50 46
38 39 49 64 76 83 84 84 85 87 90 91 93 92 85 75 68 65 66 68 70 73 75 72 64 54 46 41 41 44 44 44 45 43 42 40 30 18 16 16 14 17 26 27 19 10 8 7 7 10 16 23 29 34 40 46 46 43 43 45 51 57 59 57 57 59 63 67 69 69 68 64 59 53
36 37 46 60 70 76 75 74 78 85 91 92 89 83 74 68 66 64 63 61 59 60 60 59 55 48 43 42 44 46 45 44 45 46 46 44 33 20 17 17 23 39 49 38 19 8 8 11 15 21 26 32 38 43 44 43 41 45 55 62 67 70 68 65 67 70 73 75 74 69 62 55 52 53
36 40 47 56 62 66 68 68 71 77 84 86 84 79 74 72 70 69 67 63 60 58 55 53 49 46 46 49 50 52 49 44 44 45 42 38 30 21 15 14 23 36 37 22 11 11 16 21 25 31 38 43 44 42 40 42 50 61 70 78 84 83 75 69 70 74 77 79 77 72 67 64 65 68
40 44 49 54 59 63 66 67 69 71 76 79 79 77 76 77 77 75 72 70 68 66 65 64 63 63 66 66 65 66 62 53 50 47 38 30 23 14 9 11 16 21 20 14 14 19 22 28 34 40 46 47 42 42 47 56 64 68 72 85 98 97 87 79 79 82 82 80 76 75 76 77 76 74
45 46 49 54 61 66 69 72 74 76 79 80 80 81 83 84 85 83 82 81 80 79 78 78 78 79 80 80 78 79 77 71 65 53 38 29 23 18 21 21 16 15 17 17 21 27 30 36 44 48 51 50 49 54 60 62 64 66 73 89 100 102 97 89 84 83 82 79 76 76 75 71 62 53
47 48 51 56 63 68 71 75 79 81 82 82 83 82 82 82 81 80 79 78 78 78 78 79 81 82 84 86 88 88 86 84 79 68 55 46 37 29 29 25 17 16 24 30 36 40 42 47 52 53 53 54 56 60 62 65 71 80 90 97 98 96 93 87 84 85 84 79 73 66 60 51 37 23
46 47 53 61 65 69 73 76 79 80 80 80 79 78 78 80 81 81 81 81 82 83 85 87 89 90 90 90 88 87 84 82 81 78 70 59 45 33 29 32 35 39 43 46 47 47 47 51 53 53 54 58 61 66 71 78 86 92 95 92 89 89 91 92 92 88 81 72 59 49 48 41 23 9
48 50 57 66 69 71 75 77 78 80 80 81 82 83 84 85 87 90 91 91 91 91 92 92 91 89 87 84 80 78 77 76 77 77 73 68 64 58 53 54 54 51 47 45 45 46 49 51 54 58 63 67 72 76 80 84 87 87 87 88 91 95 97 97 95 89 83 73 54 39 38 33 17 5
53 60 66 73 76 78 81 83 84 86 87 88 90 89 86 85 88 91 91 92 93 91 88 86 84 82 80 79 78 77 77 77 77 78 78 77 74 68 59 52 47 42 41 43 45 48 51 54 61 70 75 79 82 83 83 84 84 83 86 90 91 88 85 84 84 82 77 67 46 29 24 19 9 4
61 72 76 80 84 85 88 91 93 93 93 93 95 93 89 88 90 89 87 89 91 86 82 82 81 80 80 81 81 81 80 79 77 76 75 71 65 57 50 45 42 41 43 46 46 49 55 64 73 79 82 84 84 83 82 81 79 79 81 80 75 69 66 64 59 51 41 30 20 13 11 8 5 5
64 77 81 83 87 90 93 98 99 96 91 91 95 98 97 92 85 82 85 90 89 85 84 84 82 79 78 80 83 83 80 78 76 74 70 65 61 56 51 47 46 46 47 49 51 58 68 78 83 85 84 83 82 81 80 76 73 70 64 57 50 46 40 33 26 18 11 7 6 6 6 5 6 6
68 79 81 81 86 91 96 99 99 94 89 87 91 96 96 91 87 88 92 95 93 91 90 86 80 76 76 80 84 83 79 78 76 73 68 64 61 59 56 54 53 54 57 62 67 74 82 85 85 84 82 81 80 77 72 66 61 52 38 28 24 20 15 10 8 6 5 5 5 6 6 6 7 7
71 76 76 78 88 96 99 99 98 96 93 91 93 95 96 95 96 98 99 99 98 96 92 85 78 75 78 85 87 83 81 81 80 76 70 66 64 63 61 61 66 71 76 79 80 82 83 82 82 82 80 78 75 68 57 48 41 28 16 10 8 6 6 6 6 5 6 6 6 6 6 7 7 8
73 76 78 84 91 97 99 99 99 98 98 97 97 98 99 99 100 100 100 99 96 91 87 83 79 81 88 92 89 85 84 84 83 78 72 68 66 66 69 76 85 88 85 81 79 80 81 80 80 79 75 68 58 46 33 23 17 11 6 5 5 5 6 6 6 6 6 6 6 7 7 7 7 9
75 80 83 87 94 99 98 95 97 100 99 98 99 99 99 100 100 100 100 99 94 90 87 86 87 93 98 96 91 88 86 83 80 76 71 70 73 76 84 93 95 89 82 78 75 76 78 79 75 68 57 43 31 20 12 8 7 6 6 6 6 6 6 6 6 7 6 7 7 7 7 8 8 11
82 87 90 93 97 94 81 76 88 101 100 96 98 100 100 100 99 100 101 99 96 95 95 95 97 99 98 94 92 91 87 80 76 73 73 78 84 89 95 97 92 86 84 80 74 71 72 69 59 44 28 16 10 7 6 6 6 6 6 6 6 6 6 6 7 7 7 7 7 7 8 10 11 14
85 86 86 86 82 77 73 76 88 98 97 96 98 100 100 101 100 99 100 99 99 99 100 100 101 99 96 94 93 91 85 79 77 79 83 89 91 91 89 86 81 82 84 80 75 72 66 52 35 21 11 6 6 6 6 6 6 5 6 6 6 6 7 7 7 7 7 7 7 8 11 14 16 18
82 76 69 64 64 75 88 89 84 86 91 96 100 100 99 100 100 100 100 99 99 99 99 100 100 98 94 93 91 87 84 82 83 85 88 87 83 79 77 76 78 81 80 73 66 57 43 27 15 8 6 6 6 5 5 6 6 6 6 6 7 7 7 7 8 8 8 9 10 12 15 18 18 18
78 70 60 61 70 83 91 85 77 82 92 96 96 96 97 97 99 100 100 100 100 98 98 100 100 96 91 89 88 86 84 83 83 82 79 76 73 72 73 74 77 77 67 54 41 29 17 10 7 5 5 6 5 5 6 6 6 6 7 7 8 8 8 8 8 8 9 11 13 15 18 18 17 15
62 60 67 84 92 90 88 86 86 91 95 95 95 97 98 99 100 100 100 100 100 100 100 99 97 93 90 89 88 86 82 77 74 71 70 70 71 74 74 70 66 59 45 30 19 11 7 5 5 5 5 5 5 6 6 6 7 8 8 8 8 8 8 8 8 10 12 15 17 19 18 16 14 12
53 55 70 90 97 94 94 95 95 95 96 98 100 100 99 100 100 100 100 101 100 100 100 98 94 92 90 88 84 79 74 71 69 69 71 73 74 73 71 63 52 39 25 14 8 6 5 5 5 5 5 6 6 7 7 7 7 8 8 8 9 8 8 9 12 15 18 19 20 19 16 14 12 10
57 60 73 85 92 96 98 97 95 95 96 98 99 100 100 101 100 100 100 100 100 100 99 95 92 88 85 80 75 71 70 70 71 73 75 75 71 66 60 50 36 21 11 7 5 5 5 4 5 5 6 6 7 7 7 8 8 8 8 9 9 10 11 13 16 19 20 20 18 16 14 12 11 10
63 74 86 90 88 88 89 90 91 91 92 95 98 100 100 100 100 100 100 100 100 100 96 90 86 82 77 73 71 70 72 73 75 75 73 68 62 54 42 29 17 8 5 5 5 4 5 5 6 6 7 7 8 8 8 8 8 9 9 9 10 12 13 16 18 20 20 19 16 14 13 11 10 11
68 79 86 87 84 82 82 86 89 89 91 96 100 100 100 100 100 100 100 100 99 96 91 86 83 79 77 76 74 73 74 74 74 71 65 57 48 37 23 12 6 4 5 4 4 5 6 6 6 7 7 8 8 8 9 9 9 9 9 9 11 13 15 18 21 21 19 17 15 13 12 10 10 11
79 88 93 95 93 88 85 88 91 91 94 98 100 100 100 101 100 99 99 99 97 92 88 85 84 82 81 79 76 74 74 72 66 59 52 44 32 19 9 5 4 4 5 5 5 6 6 6 7 7 7 8 9 9 10 10 10 10 10 9 11 15 18 21 22 20 18 17 14 12 11 11 11 12
82 92 96 96 94 92 94 98 99 99 99 100 100 100 100 100 100 100 100 97 93 90 87 87 87 86 83 80 76 72 70 65 56 46 37 27 15 6 3 4 4 4 5 5 6 6 6 6 7 7 8 9 9 9 10 10 10 10 11 12 14 19 22 23 22 20 18 16 13 12 12 13 13 13
84 91 96 97 98 99 101 101 100 100 100 100 100 100 100 100 100 100 97 94 92 92 92 92 92 88 83 79 75 70 63 55 46 34 22 12 5 3 4 4 4 5 6 6 6 6 7 7 8 8 9 9 9 9 10 10 10 11 12 14 19 23 25 23 21 20 18 16 13 13 14 15 17 17
89 93 97 99 100 100 99 99 100 101 101 100 100 100 100 100 99 97 94 93 94 97 98 98 94 88 81 76 71 64 55 45 33 20 10 4 3 4 5 4 5 6 6 6 6 7 7 8 8 9 9 9 10 10 10 10 11 12 14 18 23 26 25 22 21 21 19 15 13 14 16 18 20 21
90 94 97 99 100 100 100 100 100 100 99 100 100 100 100 99 96 94 94 96 98 101 101 97 92 85 78 70 60 51 42 31 18 8 4 3 4 5 4 5 6 6 6 6 7 7 8 8 8 9 10 10 10 11 11 12 13 14 17 22 27 27 25 23 22 22 19 15 13 14 17 20 22 24
Wind_Speed
23 24 24 25 24 25 26 20 20 23 19 17 21 21 21 21 22 23 21 19 20 18 16 14 14 12 10 11 12 13 13 12 13 13 12 12 14 14 14 14 14 14 14 14 14 14 15 15 15 15 15 15 15 15 16 16 16 17 17 17 18 18 18 18 19 19 20 20 21 21 21 21 22 22
23 24 24 24 24 25 25 22 23 25 20 17 21 22 22 22 23 23 20 18 20 20 19 18 16 13 12 13 14 14 14 13 14 15 14 12 14 15 15 16 16 15 15 15 14 14 14 15 15 15 16 16 16 16 16 17 17 18 18 19 19 19 19 20 20 20 20 21 21 21 21 22 22 22
23 24 24 24 23 24 25 25 25 24 19 17 21 23 23 24 25 23 19 19 21 21 22 21 19 17 15 16 16 16 15 14 14 16 16 14 15 15 16 17 17 17 17 16 16 15 15 15 16 16 16 17 17 17 17 17 18 18 19 19 20 20 20 21 21 21 21 22 22 22 22 22 23 23
24 24 23 23 23 23 24 23 22 21 17 18 21 22 22 23 24 23 20 20 22 23 22 22 21 19 18 19 19 18 17 15 14 16 17 16 16 16 17 18 18 18 18 18 18 17 17 17 17 17 17 18 18 18 18 18 19 19 20 20 20 21 21 21 22 22 22 22 22 23 23 23 23 24
25 23 22 21 20 22 22 18 17 19 18 19 21 21 21 22 22 21 20 20 22 23 22 22 22 20 19 21 21 20 19 17 16 16 17 18 19 18 18 19 19 19 20 21 20 20 19 19 19 19 19 19 19 19 19 19 20 20 21 21 21 22 22 23 23 23 23 23 23 24 24 24 25 25
23 23 24 21 19 20 18 14 15 20 19 17 20 20 20 21 21 21 20 20 23 24 21 21 22 20 20 23 24 21 20 19 19 18 17 19 20 20 20 20 20 19 20 22 23 22 22 22 22 22 21 21 21 20 21 21 21 21 22 22 22 23 23 24 24 24 24 25 25 25 25 25 25 26
22 23 24 23 21 20 17 15 16 17 17 18 20 21 21 21 21 21 20 21 23 24 22 20 21 21 22 23 24 22 21 21 21 20 19 19 20 21 21 22 22 21 21 23 23 24 24 24 24 24 24 23 23 23 23 23 23 23 23 23 24 24 25 25 25 25 25 25 25 25 26 26 26 27
23 23 23 22 20 18 16 15 17 15 15 19 21 21 22 21 21 21 20 21 23 24 22 21 21 22 23 23 24 24 23 23 21 21 20 20 21 23 24 24 23 23 22 23 24 25 25 26 26 26 26 26 25 25 25 25 25 25 25 25 25 25 26 26 26 26 26 26 26 26 27 27 27 28
23 22 20 20 19 17 15 14 16 16 16 18 20 21 22 22 21 21 19 20 22 23 23 21 20 22 22 22 23 24 24 24 22 20 20 21 23 25 27 26 25 24 24 24 25 26 26 27 27 28 28 28 28 28 28 28 28 27 27 27 27 27 27 27 27 27 27 27 27 27 28 28 29 29
22 21 18 17 16 16 15 14 15 16 16 16 19 22 22 22 21 19 18 18 19 21 22 21 20 21 21 20 22 24 26 25 22 21 21 22 24 26 27 27 26 26 27 26 26 27 28 29 29 29 30 30 30 29 29 30 29 29 29 29 29 29 29 29 29 28 29 28 28 29 29 29 30 31
21 21 18 15 14 15 15 14 14 15 14 15 19 22 22 22 20 19 18 18 18 19 20 19 19 19 19 19 20 23 27 26 23 22 23 24 26 26 26 27 27 27 27 27 27 27 28 30 30 31 31 31 31 31 30 30 30 29 29 29 29 29 29 29 29 29 29 29 29 29 29 30 31 31
20 19 17 14 13 13 13 12 13 13 13 15 17 20 20 21 22 22 21 20 20 20 19 19 20 21 20 20 20 24 29 28 25 24 24 26 28 28 27 27 29 30 29 28 28 29 29 30 31 32 32 32 32 30 29 29 29 28 28 28 27 27 28 28 29 29 29 29 29 30 30 31 32 32
19 17 14 13 12 12 11 11 11 11 12 14 16 17 18 20 24 27 28 27 27 26 24 25 27 27 24 21 23 28 31 28 26 25 25 26 28 28 29 29 29 31 33 32 32 31 30 32 33 32 32 33 32 30 28 27 27 27 28 29 29 30 31 31 32 32 33 33 33 32 32 32 32 33
18 16 13 11 11 11 11 10 10 10 11 13 15 15 16 19 23 27 30 32 33 32 31 31 32 31 26 24 26 30 30 28 27 26 26 26 26 26 29 30 29 29 32 33 34 34 32 32 34 34 33 34 34 33 31 29 30 32 35 37 36 35 33 32 32 33 34 33 33 32 31 31 31 32
16 15 12 10 9 10 10 10 11 12 12 12 12 13 14 17 21 22 25 29 30 31 31 31 31 29 26 26 30 31 29 28 28 27 26 26 26 26 27 31 31 30 29 30 33 34 33 32 35 37 37 36 35 35 33 33 34 36 37 36 34 31 29 29 30 30 30 30 29 30 30 31 32 33
14 13 11 8 7 8 10 11 13 13 11 9 10 12 14 14 15 15 16 17 19 22 25 26 27 26 25 27 30 29 29 29 28 27 26 27 28 28 28 30 31 29 28 27 30 34 34 32 32 34 35 35 35 35 36 35 35 33 30 28 27 27 28 29 30 30 30 31 33 34 35 36 37 37
12 11 9 7 7 8 10 11 12 11 9 9 10 10 10 8 7 7 8 8 9 11 16 20 22 23 25 27 29 28 29 29 28 28 28 27 28 30 31 31 29 28 28 28 30 32 33 30 27 27 30 32 35 37 37 34 30 27 27 27 29 30 31 31 31 32 34 36 37 37 37 37 37 36
11 10 8 7 7 7 8 9 9 8 7 8 9 8 8 6 5 7 8 8 8 9 14 18 20 24 26 27 27 27 28 28 28 29 29 29 29 31 31 31 30 30 30 28 28 30 30 27 24 25 28 32 35 35 33 29 25 25 28 30 32 32 31 31 32 34 35 35 35 35 35 34 33 33
9 8 6 5 5 5 5 6 5 5 5 6 7 9 9 8 9 10 11 12 13 14 18 21 23 25 24 23 24 25 26 27 28 29 29 30 31 32 32 31 30 30 28 25 24 27 27 25 25 26 27 28 29 28 26 25 26 28 29 29 29 30 31 32 33 34 34 34 33 33 33 32 32 33
7 6 4 4 4 3 4 4 3 3 3 5 8 9 9 9 10 11 12 14 15 16 18 20 20 21 21 21 23 24 25 27 28 29 30 31 31 31 30 30 28 27 25 22 22 23 25 25 26 26 25 23 22 23 25 26 27 28 27 26 27 29 30 31 33 34 35 35 34 33 31 30 31 33
6 5 5 4 3 3 3 3 3 4 5 6 9 10 10 9 11 12 13 14 15 16 17 19 19 21 22 23 24 25 26 28 29 30 30 30 29 29 29 30 27 25 23 21 20 22 24 25 24 24 23 22 22 25 27 27 26 26 27 27 27 29 30 31 33 34 35 36 34 31 28 29 32 33
6 6 6 5 5 4 5 5 6 7 8 9 10 12 12 11 13 16 17 18 20 20 21 21 22 23 24 25 26 26 26 27 28 29 29 29 27 25 26 27 25 23 23 21 21 22 22 22 23 23 22 21 23 25 26 26 25 25 25 25 26 29 30 31 32 32 33 34 33 30 29 32 36 36
7 7 6 6 6 6 7 8 9 10 12 12 14 16 16 16 18 21 22 22 22 22 22 23 23 23 23 23 23 24 24 25 26 27 27 26 24 21 21 24 24 24 24 22 21 20 20 21 22 22 21 21 21 23 24 24 23 22 23 25 27 28 29 30 31 31 31 33 33 32 33 37 39 40
6 7 7 7 7 8 9 10 12 13 15 16 18 20 21 20 21 22 22 21 20 20 20 21 21 21 22 22 22 23 24 24 25 26 25 24 22 19 19 21 22 22 21 20 19 20 21 21 21 21 22 23 23 23 22 21 22 22 23 23 24 25 26 28 30 30 31 33 34 35 36 39 41 42
5 7 8 8 8 9 10 12 13 15 17 19 21 22 22 21 21 21 21 20 19 19 19 19 21 22 23 23 24 24 24 25 25 24 23 21 18 17 16 18 19 19 19 20 20 19 20 21 21 22 24 24 24 23 20 19 20 20 18 19 21 23 25 28 29 30 31 34 36 37 37 39 41 41
5 6 9 9 9 10 11 13 14 15 17 19 20 20 20 20 19 20 21 21 19 20 20 20 22 24 24 24 25 25 25 25 24 22 20 18 16 15 15 17 18 19 19 20 19 19 21 23 23 24 24 22 21 20 19 18 18 17 17 19 23 24 25 27 30 32 34 36 36 36 37 38 40 41
6 7 11 11 11 12 13 14 15 16 18 19 19 20 20 20 20 22 23 22 21 22 23 23 24 25 26 26 26 25 25 24 22 20 18 16 15 15 15 17 18 18 19 20 20 21 22 23 23 22 21 20 19 19 19 19 19 19 21 22 24 25 27 29 32 33 35 36 36 36 37 38 40 42
10 11 14 14 13 14 14 15 17 18 19 18 18 20 21 22 22 23 23 23 23 23 23 24 25 27 28 26 24 24 23 23 21 18 16 15 16 16 16 17 17 18 19 20 21 22 21 21 20 19 19 19 19 19 19 19 20 23 25 25 25 26 29 31 32 33 35 36 36 37 38 39 40 41
15 17 19 18 16 16 16 17 18 18 19 19 19 21 22 23 23 23 23 23 24 23 23 24 27 29 28 26 25 24 23 21 19 16 15 15 16 16 15 16 16 17 19 20 19 18 18 18 17 17 18 18 19 20 21 21 22 26 28 26 26 28 30 31 33 34 36 37 37 38 39 40 40 40
18 19 21 21 20 18 17 17 18 18 19 21 22 22 22 23 22 21 22 23 24 25 26 27 28 28 26 24 24 23 23 20 17 15 15 15 14 14 14 15 16 17 18 18 17 15 15 16 16 16 17 18 19 21 22 23 25 27 28 27 27 29 31 32 33 36 37 38 38 39 39 39 39 40
20 21 22 23 22 20 18 18 19 19 21 24 25 23 22 23 23 22 23 23 24 26 29 29 28 25 23 22 21 21 21 19 16 15 16 15 15 16 15 15 17 17 17 17 16 14 13 14 16 17 18 19 21 22 23 26 27 28 28 28 28 30 32 34 35 37 38 38 39 39 39 40 40 40
21 22 22 22 21 21 21 20 20 21 23 26 27 26 25 25 25 25 25 24 24 26 27 27 26 25 22 21 20 19 19 18 15 14 13 12 14 16 15 14 17 17 17 17 17 16 14 16 18 20 21 22 23 24 25 27 28 29 29 30 31 32 34 35 37 38 39 40 41 41 41 41 41 41
22 22 22 22 21 21 21 22 22 23 25 26 28 28 27 25 25 25 24 23 22 23 24 24 25 24 22 20 18 17 16 15 14 13 12 12 13 13 13 13 14 15 16 18 17 16 16 18 21 22 22 23 25 25 27 28 29 30 31 32 32 33 35 37 38 39 40 41 41 41 40 40 41 42
20 21 22 23 22 21 21 22 24 25 25 27 28 29 27 25 25 25 23 23 24 24 23 22 21 20 18 16 16 16 14 13 14 14 13 12 11 10 10 11 12 14 16 17 16 16 17 19 21 23 24 25 26 27 28 30 30 31 32 33 33 34 36 37 37 38 39 39 41 41 41 41 42 42
18 22 24 24 22 20 21 23 24 24 24 25 26 26 25 25 25 25 25 26 26 24 20 17 16 16 14 12 12 15 15 15 14 11 10 9 9 9 10 11 11 14 16 17 16 16 17 19 21 22 23 26 28 29 30 31 32 32 33 33 34 35 36 37 37 38 39 40 41 42 41 41 41 41
19 22 25 24 22 20 22 25 25 24 24 25 25 26 26 25 25 25 26 26 23 19 15 14 14 14 12 10 11 13 13 13 10 8 8 8 9 10 11 12 12 14 17 19 19 17 18 20 22 22 23 25 28 30 31 32 33 33 33 34 35 37 38 39 39 39 40 40 40 40 40 40 40 41
23 24 25 26 25 24 25 26 25 25 25 24 25 26 26 25 25 25 24 24 20 15 13 13 12 10 10 10 11 11 10 9 8 8 8 9 9 10 11 13 15 16 18 22 22 19 19 22 24 24 25 27 27 30 32 34 34 35 36 36 37 38 39 39 38 38 38 39 39 39 39 40 41 40
27 26 25 26 26 25 25 25 25 24 25 25 26 26 25 24 24 23 22 21 17 14 12 11 9 8 8 9 9 8 8 7 7 8 9 9 10 11 12 15 18 18 18 21 23 21 20 22 24 25 26 28 29 30 33 35 36 38 37 36 36 37 38 38 38 38 38 38 38 38 39 40 39 38
26 24 24 25 25 25 25 25 25 25 26 27 26 25 25 24 23 21 20 17 14 12 10 8 7 6 7 8 7 7 7 7 7 8 9 10 11 13 14 16 19 19 18 20 23 23 22 23 25 26 26 28 29 31 33 35 36 37 37 36 35 37 38 38 38 38 37 37 37 38 38 38 36 34
23 23 23 23 23 24 24 24 24 26 28 27 26 26 26 25 22 19 17 14 12 10 8 6 6 6 7 7 7 6 6 7 7 8 10 11 14 16 17 17 18 19 18 19 21 23 24 24 25 26 27 28 29 31 32 34 35 36 38 37 35 36 38 38 37 36 35 36 37 37 37 36 34 31
20 21 21 21 23 24 25 25 25 27 28 28 27 26 24 21 18 16 14 13 11 8 6 5 6 7 7 6 6 6 6 7 8 9 11 13 16 18 18 17 18 19 20 20 22 23 24 25 26 28 29 29 30 30 31 31 32 34 36 37 36 36 37 36 34 34 34 35 36 36 35 34 32 31
19 19 20 21 23 25 25 25 26 26 26 26 25 23 20 16 15 14 13 11 9 6 5 6 6 7 7 7 6 6 7 8 10 12 13 15 17 18 18 18 18 19 20 22 23 24 26 27 28 28 29 30 31 32 32 32 32 33 35 36 36 35 35 33 32 32 34 35 34 34 33 31 31 30
19 19 19 21 22 23 23 22 22 22 22 22 21 20 17 14 13 12 10 8 6 5 6 6 7 8 8 7 7 7 9 10 12 15 16 17 17 17 17 18 19 20 22 23 24 25 27 28 29 30 30 31 32 33 33 34 34 34 34 35 35 33 32 31 31 32 33 33 32 31 30 30 30 30
20 20 21 21 21 20 19 18 18 18 19 19 18 17 15 13 11 9 7 6 5 6 7 8 9 9 8 7 8 9 10 12 14 16 18 17 17 17 17 18 19 20 22 24 25 26 27 29 30 32 33 33 33 33 34 34 34 35 35 35 34 33 31 30 30 31 32 31 30 29 29 28 29 29
19 19 19 20 19 18 17 15 16 16 17 17 16 15 13 12 9 7 5 5 6 8 9 10 10 9 8 8 9 10 12 15 16 17 17 16 16 17 18 19 20 21 22 23 25 26 28 29 30 31 33 34 34 34 34 34 35 36 36 35 34 32 31 30 31 32 32 31 30 28 28 27 28 28
Wind_Direction
302 300 296 290 289 283 274 271 266 254 243 239 243 248 257 260 254 255 266 279 280 275 273 280 284 286 309 327 322 317 315 310 304 301 297 295 300 306 309 310 310 310 309 310 311 310 311 311 310 310 309 308 308 308 308 307 307 307 306 306 305 305 304 303 303 302 301 300 299 298 298 298 298 298
302 298 292 286 286 285 282 279 266 251 239 238 245 249 254 255 252 254 265 278 281 282 285 290 290 292 310 324 320 313 311 309 303 302 303 300 299 303 305 304 303 304 306 307 308 307 307 308 308 308 308 307 307 307 307 307 308 307 307 306 305 305 304 302 302 301 300 299 298 298 297 297 298 298
304 299 293 290 287 286 287 282 266 250 238 239 248 251 253 253 248 247 260 275 276 278 284 289 290 293 302 314 317 312 307 306 302 302 305 303 299 299 298 298 300 302 304 304 305 305 304 304 304 305 305 306 306 307 307 307 307 306 306 305 304 303 302 301 300 299 298 297 296 296 297 297 297 297
311 311 307 303 293 284 286 283 265 252 246 245 250 252 252 250 244 243 257 270 270 271 276 280 282 287 296 306 313 310 305 305 302 300 300 299 296 296 296 297 300 302 303 302 302 302 302 301 301 302 302 304 304 305 305 305 304 304 303 303 302 301 299 298 297 296 296 295 295 296 296 296 296 296
315 318 311 304 294 283 283 282 266 255 251 250 253 255 252 246 241 243 255 262 262 265 269 273 278 284 292 301 306 305 303 305 302 298 297 298 299 301 301 301 301 302 302 302 302 302 301 300 300 300 300 301 302 302 302 302 301 301 300 300 299 297 296 296 295 295 294 294 295 295 295 295 295 295
316 318 309 305 304 296 287 280 263 255 255 256 257 255 250 244 241 245 250 252 255 258 261 268 277 282 289 297 301 300 301 302 302 302 301 301 303 305 305 302 300 299 299 299 301 302 301 300 299 299 299 299 299 300 299 298 297 296 296 295 294 293 293 292 292 292 292 293 293 293 293 293 294 294
314 314 310 310 311 307 295 277 264 262 264 262 255 251 247 242 243 248 249 250 253 256 260 266 274 280 287 295 297 295 296 296 298 302 302 302 305 305 304 303 299 298 298 298 298 299 298 298 298 298 298 297 297 298 297 295 294 293 291 291 290 289 289 289 290 290 290 290 290 291 292 292 293 293
313 312 310 309 308 308 300 278 266 268 269 261 253 250 247 242 244 251 251 251 254 258 264 266 269 277 285 292 294 292 293 293 296 299 301 304 306 304 304 305 301 299 298 297 296 296 296 297 297 297 297 297 297 297 295 294 293 291 290 289 288 287 287 287 288 288 288 288 289 290 291 292 293 293
313 314 312 307 303 306 304 285 273 271 268 263 256 251 246 241 245 253 253 251 255 260 264 264 267 278 284 288 291 291 291 291 293 295 298 302 303 302 304 305 302 300 297 295 295 295 295 295 295 295 296 296 296 296 295 295 294 292 291 290 290 290 290 290 290 290 290 291 292 293 293 294 294 294
314 318 316 305 297 299 300 295 287 279 271 268 262 255 248 240 243 254 256 252 254 261 265 265 269 279 286 289 292 293 291 290 291 292 295 299 299 299 302 302 301 299 297 297 297 296 295 295 296 296 296 297 297 296 296 295 295 295 295 294 294 294 294 294 294 295 295 296 297 297 296 296 296 295
315 318 316 304 292 291 293 295 296 287 278 274 269 262 254 243 239 247 251 248 249 256 263 267 268 273 280 284 289 294 294 292 292 292 294 298 299 300 299 298 298 296 296 297 296 294 294 295 296 297 297 297 296 295 296 296 297 298 298 298 298 298 299 298 298 298 298 298 298 298 298 297 297 297
315 316 315 304 293 291 294 297 297 292 286 282 278 273 264 248 236 237 239 240 241 245 253 259 259 261 267 269 275 289 294 292 291 292 294 297 300 301 299 297 298 298 297 297 295 295 296 296 297 297 297 296 296 297 298 298 299 300 300 302 302 302 302 301 300 300 299 298 298 298 298 298 298 298
316 317 313 300 293 295 300 302 301 297 295 292 289 284 270 253 241 237 237 236 234 236 243 249 252 257 262 265 276 289 293 292 292 293 296 299 301 301 297 296 299 301 302 302 301 301 302 301 300 301 301 301 302 304 304 303 302 301 301 301 300 300 299 298 298 298 298 298 297 297 296 296 296 297
318 318 311 300 295 298 302 305 307 306 301 297 294 285 269 260 256 251 248 246 243 244 248 252 255 258 260 267 282 291 293 293 295 297 302 306 307 302 295 294 298 301 302 304 304 305 306 306 305 306 306 306 306 307 305 302 300 299 298 297 296 296 296 295 295 295 295 294 294 294 295 295 295 296
318 318 314 306 299 299 304 307 309 308 303 299 298 290 276 272 273 272 266 262 258 256 256 257 260 259 259 272 286 292 293 294 298 302 307 308 309 305 296 293 299 303 305 306 305 306 307 308 309 309 309 310 310 308 305 303 301 302 301 300 297 297 298 298 297 295 294 294 295 296 297 297 296 296
318 320 320 314 305 301 303 303 302 304 305 303 300 295 290 287 288 289 286 279 273 268 264 262 260 257 262 278 289 292 294 297 300 304 307 308 309 307 300 297 303 306 307 307 306 304 305 306 308 309 310 312 312 310 310 310 311 310 307 304 301 300 300 298 297 296 295 297 298 299 298 298 298 297
320 324 325 323 317 309 306 303 300 301 304 305 303 296 291 292 303 319 325 317 300 280 268 264 261 263 274 287 292 294 296 299 302 304 306 307 307 305 302 302 305 305 305 306 304 301 301 303 306 308 309 310 310 311 313 315 314 312 308 306 304 302 300 297 296 296 297 298 299 300 301 301 301 299
323 328 332 331 329 323 319 317 309 301 300 301 300 291 283 291 317 330 327 317 302 281 271 270 272 277 284 289 292 294 296 298 300 302 304 304 303 301 300 301 302 301 303 304 302 297 297 303 307 308 308 310 311 313 314 314 313 310 307 305 303 302 300 299 298 299 299 300 301 302 303 303 303 301
324 333 342 340 342 343 343 344 334 313 298 288 282 282 285 294 301 298 292 286 280 274 272 274 276 279 283 287 289 293 296 297 299 300 300 300 299 298 297 297 297 300 302 302 297 294 298 304 306 305 308 310 310 309 308 307 308 306 303 301 299 298 299 301 302 303 303 303 303 303 302 302 302 301
325 334 338 333 342 344 339 345 343 321 294 276 272 276 280 281 280 279 278 276 275 274 273 275 278 281 285 287 289 291 293 293 294 295 295 295 294 294 294 294 296 298 299 297 294 295 299 302 303 303 305 304 300 298 297 298 300 300 298 296 294 294 299 303 304 304 305 306 307 307 306 305 304 304
323 328 325 321 323 311 297 297 292 280 273 269 271 274 273 269 269 272 273 274 276 277 278 281 283 286 288 289 289 290 289 289 289 289 288 287 288 289 291 292 294 295 294 292 293 296 298 298 299 300 300 299 295 292 292 294 297 297 295 294 293 295 300 303 303 305 306 308 309 309 310 311 309 309
320 326 328 323 313 303 292 282 275 270 269 270 272 273 271 269 272 275 277 279 281 282 284 286 288 289 291 290 290 290 289 288 287 285 284 285 287 288 290 291 292 293 294 296 298 299 297 295 295 294 295 296 295 294 296 299 302 301 297 293 292 295 299 301 303 305 306 307 309 312 315 316 315 314
313 321 326 320 310 304 293 282 277 275 276 277 278 279 279 280 283 285 285 286 288 290 293 295 295 294 293 292 291 292 291 290 289 287 286 286 288 289 290 291 293 296 300 302 302 300 296 293 293 296 298 298 296 297 300 302 301 297 293 292 294 297 299 301 304 305 306 307 310 315 318 319 317 316
309 317 319 313 306 301 294 287 284 283 284 286 286 287 290 292 294 296 297 298 300 301 302 302 300 298 296 296 296 296 295 293 292 291 290 290 290 290 290 291 293 296 299 299 297 295 293 292 296 300 301 301 300 300 300 297 295 294 295 298 299 297 297 298 300 303 306 308 310 315 318 318 316 315
313 313 305 303 304 303 301 295 291 290 290 292 292 292 295 298 300 302 305 306 305 303 305 306 305 304 303 302 302 301 299 297 297 296 293 291 290 289 288 289 290 290 291 291 291 291 291 294 298 299 300 303 304 304 303 299 298 302 306 304 297 294 297 299 300 303 306 307 310 315 316 314 313 313
317 308 297 300 303 302 301 297 295 296 297 298 297 296 296 298 300 303 303 302 300 301 304 307 307 307 307 304 302 301 299 299 299 296 293 291 291 290 288 286 285 286 287 287 288 290 292 295 299 301 305 307 306 306 306 305 305 309 306 298 296 301 305 304 303 304 306 309 312 314 312 310 311 311
313 305 296 299 302 301 301 301 304 310 309 305 299 294 293 296 300 301 298 297 297 298 300 304 306 306 305 302 300 298 297 298 298 295 294 294 293 290 286 283 283 285 287 288 290 292 295 298 303 307 310 309 308 307 307 308 311 308 300 298 305 310 308 304 305 308 310 312 313 312 311 311 312 312
307 303 296 299 305 308 307 307 310 312 311 307 298 290 289 292 296 297 296 295 295 295 298 304 307 306 305 303 301 300 299 298 299 299 296 292 289 287 286 286 287 288 289 292 296 298 299 301 305 308 309 309 310 309 309 312 312 305 302 308 315 312 307 308 311 312 312 312 313 313 313 315 316 315
299 299 300 305 311 313 311 309 309 308 307 304 297 289 286 287 290 293 295 294 293 294 298 303 306 308 308 305 304 303 302 302 305 303 296 291 291 292 294 294 293 293 295 300 304 305 304 305 305 306 309 310 310 309 310 312 308 304 308 317 319 313 312 314 314 312 312 313 314 315 316 317 317 316
294 296 299 304 309 311 308 304 304 305 300 292 285 280 282 286 290 292 292 292 294 297 300 303 307 309 307 303 304 306 308 312 315 309 303 301 300 300 304 303 298 299 305 311 313 311 308 306 306 307 310 310 308 309 310 309 307 309 316 320 318 315 315 315 313 313 314 315 316 316 316 316 316 315
290 292 295 300 304 305 303 301 303 303 297 291 290 290 289 290 292 292 290 291 296 300 303 306 308 306 302 302 306 307 311 319 324 318 317 318 313 313 316 309 303 309 317 317 316 318 314 308 307 309 309 307 308 311 312 312 313 317 320 320 320 319 318 316 315 315 316 316 316 316 317 318 318 317
287 290 293 297 299 299 301 302 301 297 294 296 300 300 294 290 290 288 286 289 297 303 306 306 304 300 300 306 309 310 318 327 328 321 320 317 311 313 313 303 305 317 321 315 318 327 324 314 312 312 311 312 314 316 316 316 318 321 322 322 323 322 319 317 317 317 318 318 318 319 320 321 320 319
287 290 292 294 297 301 303 301 295 291 292 296 298 295 291 287 284 282 284 291 299 301 298 294 293 296 303 310 312 316 323 324 316 312 313 311 309 310 307 304 311 315 310 308 316 323 318 313 312 312 314 317 318 318 319 319 320 322 322 323 324 321 318 318 318 318 319 319 319 321 322 322 322 323
291 295 298 300 302 303 303 300 295 294 295 296 295 292 289 285 283 284 286 291 294 291 286 286 292 300 308 312 313 315 317 312 309 313 315 314 315 314 311 313 312 305 301 305 311 311 310 311 313 314 318 320 320 320 320 321 321 323 323 324 323 320 318 318 318 319 320 321 322 324 325 326 326 327
287 293 300 302 300 296 295 295 294 292 293 295 293 290 288 286 286 285 283 287 291 291 288 290 298 303 308 311 309 311 313 312 315 319 316 314 319 317 314 313 306 299 300 303 305 309 314 315 315 319 322 323 322 322 323 322 322 323 323 323 321 319 318 320 322 323 325 325 326 326 327 328 328 328
294 298 300 296 289 287 290 289 287 287 289 290 288 286 286 285 285 284 284 290 295 293 289 292 299 303 309 310 307 307 311 313 316 318 315 318 321 316 313 311 305 302 303 304 307 316 321 319 320 324 325 324 323 323 322 321 322 322 323 324 324 322 323 325 326 327 326 326 326 328 329 330 330 330
295 295 292 284 282 286 290 289 288 288 287 284 281 282 282 282 283 285 287 289 290 286 284 291 298 303 306 305 304 307 310 313 318 320 318 319 316 309 308 306 304 307 309 308 312 322 327 323 324 326 326 324 324 322 320 322 323 324 325 327 326 324 325 327 327 327 327 328 330 331 331 331 331 332
286 285 281 278 281 285 287 288 289 289 286 281 279 280 280 280 281 283 282 282 282 282 284 290 296 300 302 303 306 312 315 317 319 316 311 309 305 303 304 303 303 307 312 311 314 324 329 325 324 325 325 324 325 324 323 325 325 325 326 328 327 326 327 328 327 328 329 330 331 331 332 333 334 335
280 279 278 278 281 283 283 284 287 285 280 277 278 281 282 280 279 277 275 276 278 280 284 291 300 308 312 313 316 320 319 316 311 304 301 301 301 301 303 303 303 309 314 315 318 324 327 325 324 325 326 326 326 326 325 325 325 325 326 329 330 328 328 328 328 329 330 330 331 332 334 335 336 337
279 279 279 280 282 283 283 284 286 285 281 279 280 281 280 278 275 273 274 277 279 280 284 296 311 323 324 320 320 319 311 302 297 295 299 302 303 303 304 305 307 311 316 318 320 322 324 325 325 325 326 327 327 326 326 326 327 326 327 330 330 328 327 328 329 330 330 331 332 334 335 336 337 338
277 277 276 277 281 283 284 285 285 284 282 280 278 275 274 274 275 276 278 280 279 277 281 297 319 332 330 317 311 305 295 291 292 296 301 304 303 303 305 307 310 315 318 320 322 323 324 325 326 326 327 328 328 328 328 328 327 326 327 328 328 328 328 329 330 330 331 333 335 336 337 338 339 339
270 272 276 281 283 283 283 283 281 280 279 277 274 273 273 274 275 276 277 277 276 276 287 305 325 335 325 310 298 287 284 290 297 302 304 304 301 302 307 311 315 318 320 322 324 325 325 326 326 327 329 329 329 329 328 328 328 328 327 328 329 329 330 330 330 331 334 337 338 338 338 339 340 340
275 276 282 288 287 283 282 282 282 283 282 279 276 276 277 276 274 273 274 278 283 288 294 304 321 326 315 297 285 282 289 298 303 304 305 304 302 305 311 315 318 322 323 324 325 326 326 327 328 329 330 330 329 328 328 329 329 329 328 329 330 330 330 329 331 334 337 339 339 338 339 340 341 342
285 281 282 286 288 288 289 288 286 285 283 279 277 275 273 270 267 266 269 279 286 286 287 298 312 314 299 279 274 283 295 302 303 303 303 304 307 311 315 318 321 324 324 324 325 325 327 329 330 330 329 329 330 330 330 330 330 330 331 332 332 330 330 331 334 337 339 339 338 338 339 341 343 345
290 286 285 287 289 291 292 291 288 284 281 277 274 269 264 261 261 261 266 270 271 274 282 293 301 297 281 272 280 293 301 303 302 301 302 306 310 314 317 321 324 324 323 323 325 328 330 331 330 329 328 329 331 331 331 332 332 332 332 333 332 331 332 334 337 338 339 338 337 337 338 339 342 345